Location: Poughquag
(41.6090°N, 73.6820°W)
Time: 01:49:13
(UTC-04:00)

Vanguard 1 Rocket - Pass Details

Date: 02 June 2020
Orbit: 653 x 4224 km, 34.3° (Epoch: 06 July)

Event Time Altitude Azimuth Distance (km) Brightness Sun altitude
Rises 02:57:48 0° 260° (W) 7,654 11.7 -19.9°
Reaches altitude 10° 03:03:46 10° 258° (WSW) 6,143 11.2 -19.3°
Maximum altitude 03:20:12 61° 185° (S) 2,138 8.9 -17.6°
Drops below altitude 10° 03:28:29 10° 107° (ESE) 3,266 10.5 -16.7°
Sets 03:30:41 0° 103° (ESE) 3,956 11.0 -16.4°
